Regional Weather Roundup
Issued by NWS

Home | Current Version | Previous Version | Graphics & Text | Print | Product List | Glossary On
Versions: 1 2 3 4 5 6 7 8 9 10 11 12 13 14 15 16 17 18 19 20 21 22 23 24 25 26 27 28 29 30 31 32 33 34 35 36 37 38 39 40 41 42 43 44 45 46 47 48 49 50
000
ASUS43 KOAX 300802
RWRNE

WEATHER ROUNDUP FOR NEBRASKA
NATIONAL WEATHER SERVICE OMAHA NE
300 AM CDT WED JUL 30 2014

NOTES: SATELLITE DATA IS BEING USED TO AUGMENT CLOUD COVER ABOVE
       12000 FEET.
       "FAIR" INDICATES FEW OR NO CLOUDS BELOW 12,000 FEET WITH NO
       SIGNIFICANT WEATHER AND/OR OBSTRUCTIONS TO VISIBILITY.

  * THESE STATIONS DO NOT REPORT WEATHER SUCH AS RAIN...SNOW OR FOG.

NEZ001>004-019>022-054>056-300900-
NEBRASKA PANHANDLE

CITY           SKY/WX    TMP DP  RH WIND       PRES   REMARKS
SCOTTSBLUFF    CLOUDY    63  60  90 NE7       30.25F
ALLIANCE       CLOUDY    64  53  67 E5        30.24F
CHADRON        MOCLDY    55  53  93 W3        30.23S
KIMBALL        RAIN      59  59  97 CALM      30.26F
SIDNEY         CLOUDY    62  59  90 SE6       30.26S
$$

NEZ057>060-069>072-079>082-300900-
SOUTHWEST NEBRASKA

CITY           SKY/WX    TMP DP  RH WIND       PRES   REMARKS
NORTH PLATTE   CLOUDY    64  59  83 CALM      30.19F
IMPERIAL       LGT RAIN  63  60  90 E6        30.20F
LEXINGTON      CLOUDY    66  60  81 SE3       30.17F
MCCOOK         RAIN      63  61  93 E12       30.17S FOG
OGALLALA       CLOUDY    63  61  93 S3        30.20F
$$

NEZ005>010-023>029-035>040-094-300900-
NORTH CENTRAL NEBRASKA

CITY           SKY/WX    TMP DP  RH WIND       PRES   REMARKS
VALENTINE      PTCLDY    52  50  93 W6        30.19F
AINSWORTH      PTCLDY    55  51  85 CALM      30.19S
BROKEN BOW     CLOUDY    61  59  93 CALM      30.18S
O`NEILL        PTCLDY    58  54  86 CALM      30.17S
ORD            MOCLDY    56  55  97 CALM      30.16S
THEDFORD       MOCLDY    57  55  91 CALM      30.21S
$$

NEZ041-046>049-061>064-073>077-083>087-300900-
SOUTH CENTRAL NEBRASKA

CITY           SKY/WX    TMP DP  RH WIND       PRES   REMARKS
GRAND ISLAND   CLOUDY    65  59  81 CALM      30.16S
AURORA         CLOUDY    63  60  93 E3        30.15S
HASTINGS       CLOUDY    67  53  61 SE7       30.15F
HEBRON         CLOUDY    64  56  75 CALM      30.14S
HOLDREGE       CLOUDY    64  57  79 SE3       30.16S
KEARNEY *      CLOUDY    64  57  77 E3        30.16F
YORK           CLOUDY    63  59  88 CALM      30.15S
$$

NEZ011>018-030>034-042>045-300900-
NORTHEAST NEBRASKA

CITY           SKY/WX    TMP DP  RH WIND       PRES   REMARKS
NORFOLK        MOCLDY    57  54  89 CALM      30.15F
ALBION         PTCLDY    54  52  92 CALM      30.16F
BLAIR          CLEAR     60  52  76 N5        30.13S
COLUMBUS *     PTCLDY    57  52  82 CALM      30.15S
FREMONT        CLEAR     58  55  91 CALM      30.14S
TEKAMAH        CLEAR     55  51  86 CALM      30.12F
WAYNE          PTCLDY    53  52  95 CALM      30.15F
$$

NEZ050>053-065>068-078-088>093-300900-
SOUTHEAST NEBRASKA

CITY           SKY/WX    TMP DP  RH WIND       PRES   REMARKS
LINCOLN        CLOUDY    62  56  80 N3        30.14S
OMAHA EPPLEY   PTCLDY    57  54  89 NW5       30.13S
BEATRICE       CLOUDY    62  58  84 CALM      30.13S
FALLS CITY     MOCLDY    62  57  83 CALM      30.11S
NEBRASKA CITY  MOCLDY    62  57  82 N3        30.13S
PLATTSMOUTH    PTCLDY    60  55  86 CALM      30.13S
$$

NEZ044-045-051>053-067-300900-
OMAHA AREA

CITY           SKY/WX    TMP DP  RH WIND       PRES   REMARKS
OMAHA EPPLEY   PTCLDY    57  54  89 NW5       30.13S
BLAIR          CLEAR     60  52  76 N5        30.13S
FREMONT        CLEAR     58  55  91 CALM      30.14S
MILLARD        PTCLDY    59  57  92 CALM      30.12S
OFFUTT AFB     CLEAR     55  55 100 CALM      30.11F FOG
PLATTSMOUTH    PTCLDY    60  55  86 CALM      30.13S
WAHOO          FAIR      57  54  89 NW5       30.13S
$$


USA.gov is the U.S. government's official web portal to all federal, state and local government web resources and services.